DW8847 Weather Reports


time (UTC)temp
C
wind
direction
speed
KPH
gust
KPH
rain 1hr
cm
rain 24hr
cm
rain mn
cm
humidity
%
barometer
mb
20260502232022 10 61 0.0 3.2 0.00 0.00 0.00 79 1019.8
20260502231522 10 61 0.0 3.2 0.00 0.00 0.00 79 1019.9
20260502231025 10 61 0.0 3.2 0.00 0.00 0.00 79 1020.0
20260502230521 10 61 0.0 3.2 0.00 0.00 0.00 78 1019.9
20260502230021 10 61 0.0 3.2 0.00 0.00 0.00 78 1020.0
20260502225523 10 61 0.0 3.2 0.00 0.00 0.00 78 1019.9
20260502225019 10 61 0.0 3.2 0.00 0.00 0.00 77 1020.0
20260502224520 10 61 0.0 3.2 0.00 0.00 0.00 77 1020.0
20260502224017 11 61 0.0 3.2 0.00 0.00 0.00 75 1020.0
20260502223516 11 61 0.0 0.0 0.00 0.00 0.00 75 1020.0
20260502223015 11 61 0.0 0.0 0.00 0.00 0.00 74 1020.0
20260502222515 11 61 0.0 0.0 0.00 0.00 0.00 74 1020.0
20260502222019 11 61 0.0 0.0 0.00 0.00 0.00 74 1019.9
20260502221512 12 61 0.0 3.2 0.00 0.00 0.00 73 1019.9
20260502221010 12 61 0.0 3.2 0.00 0.00 0.00 70 1019.9
20260502220508 13 61 0.0 3.2 0.00 0.00 0.00 70 1019.9
20260502220018 13 61 0.0 3.2 0.00 0.00 0.00 69 1019.9
20260502215510 13 61 1.6 4.8 0.00 0.00 0.00 67 1020.0
20260502215006 13 63 0.0 4.8 0.00 0.00 0.00 67 1019.9
20260502214507 13 63 0.0 4.8 0.00 0.00 0.00 67 1019.9
20260502214009 13 63 1.6 4.8 0.00 0.00 0.00 67 1019.9
20260502213506 13 63 1.6 6.4 0.00 0.00 0.00 66 1019.9
20260502213019 13 63 1.6 6.4 0.00 0.00 0.00 66 1019.9
20260502212506 14 57 1.6 4.8 0.00 0.00 0.00 66 1019.9
20260502212007 14 70 1.6 4.8 0.00 0.00 0.00 65 1019.9
20260502211506 14 67 0.0 4.8 0.00 0.00 0.00 65 1019.8
20260502211005 14 67 1.6 4.8 0.00 0.00 0.00 65 1019.9
20260502210505 14 65 0.0 3.2 0.00 0.00 0.00 64 1019.9
20260502210005 14 65 0.0 6.4 0.00 0.00 0.00 65 1019.9
20260502205505 14 73 1.6 6.4 0.00 0.00 0.00 65 1019.9
20260502205005 13 56 1.6 4.8 0.00 0.00 0.00 67 1019.9
20260502204505 13 78 0.0 3.2 0.00 0.00 0.00 68 1019.9
20260502204005 12 160 0.0 3.2 0.00 0.00 0.00 69 1020.0
20260502203507 13 187 0.0 3.2 0.00 0.00 0.00 69 1019.9
20260502203004 13 187 0.0 0.0 0.00 0.00 0.00 68 1020.0
20260502202504 13 187 0.0 3.2 0.00 0.00 0.00 65 1019.9
20260502202004 13 187 0.0 3.2 0.00 0.00 0.00 65 1020.0
20260502201505 13 187 0.0 3.2 0.00 0.00 0.00 65 1020.0
20260502201004 13 187 0.0 0.0 0.00 0.00 0.00 65 1020.0
20260502200504 13 187 0.0 0.0 0.00 0.00 0.00 65 1020.0
20260502200004 13 187 0.0 1.6 0.00 0.00 0.00 66 1020.0
20260502195504 13 187 0.0 3.2 0.00 0.00 0.00 66 1020.0
20260502195003 14 187 0.0 1.6 0.00 0.00 0.00 65 1020.0
20260502194504 15 187 0.0 0.0 0.00 0.00 0.00 62 1019.9
20260502194004 15 187 0.0 0.0 0.00 0.00 0.00 62 1019.9
20260502193504 15 187 0.0 0.0 0.00 0.00 0.00 58 1019.9
20260502193003 15 187 0.0 0.0 0.00 0.00 0.00 58 1019.7
20260502192505 16 187 0.0 0.0 0.00 0.00 0.00 57 1019.7
20260502192003 16 187 0.0 0.0 0.00 0.00 0.00 57 1019.6
20260502191502 16 187 0.0 0.0 0.00 0.00 0.00 57 1019.6
20260502191006 16 187 0.0 0.0 0.00 0.00 0.00 56 1019.6
20260502190502 16 187 0.0 0.0 0.00 0.00 0.00 55 1019.5
20260502190002 16 187 0.0 0.0 0.00 0.00 0.00 54 1019.5
20260502185501 17 187 0.0 0.0 0.00 0.00 0.00 54 1019.5
20260502185001 17 187 0.0 0.0 0.00 0.00 0.00 54 1019.4
20260502184503 17 187 0.0 3.2 0.00 0.00 0.00 53 1019.4
20260502184002 17 187 0.0 3.2 0.00 0.00 0.00 52 1019.4
20260502183504 18 187 0.0 0.0 0.00 0.00 0.00 52 1019.3
20260502183003 18 187 0.0 3.2 0.00 0.00 0.00 51 1019.3
20260502182502 18 187 0.0 3.2 0.00 0.00 0.00 49 1019.2
20260502182100 18 187 0.0 3.2 0.00 0.00 0.00 49 1019.2
20260502181605 19 187 0.0 3.2 0.00 0.00 0.00 48 1019.2
20260502181100 19 187 0.0 3.2 0.00 0.00 0.00 47 1019.1
20260502180600 20 187 0.0 3.2 0.00 0.00 0.00 46 1019.1
20260502180114 20 187 0.0 4.8 0.00 0.00 0.00 45 1019.1
20260502164056 23 206 4.8 11.3 0.00 0.00 0.00 38 1019.1
20260502163600 23 223 4.8 12.9 0.00 0.00 0.00 38 1019.2
20260502163109 23 247 4.8 16.1 0.00 0.00 0.00 38 1019.2
20260502162556 23 200 4.8 11.3 0.00 0.00 0.00 38 1019.2
20260502162055 23 190 4.8 11.3 0.00 0.00 0.00 38 1019.2
20260502161558 23 195 4.8 14.5 0.00 0.00 0.00 37 1019.2
20260502161054 23 225 8.0 14.5 0.00 0.00 0.00 36 1019.2
20260502160554 23 180 4.8 12.9 0.00 0.00 0.00 35 1019.2
20260502152052 24 198 6.4 12.9 0.00 0.00 0.00 34 1019.7
20260502151551 24 243 4.8 12.9 0.00 0.00 0.00 34 1019.6
20260502151049 23 239 4.8 11.3 0.00 0.00 0.00 34 1019.7
20260502150548 23 219 6.4 12.9 0.00 0.00 0.00 34 1019.8
20260502130533 23 198 3.2 12.9 0.00 0.00 0.00 34 1021.3
20260502123529 23 217 4.8 16.1 0.00 0.00 0.00 32 1021.6
20260502123029 23 209 6.4 16.1 0.00 0.00 0.00 33 1021.7
20260502122529 23 211 8.0 17.7 0.00 0.00 0.00 33 1021.8
20260502122029 23 232 4.8 14.5 0.00 0.00 0.00 33 1021.8
20260502121527 23 228 1.6 14.5 0.00 0.00 0.00 33 1021.9
20260502121027 23 237 8.0 14.5 0.00 0.00 0.00 35 1022.0
20260502120526 23 226 6.4 11.3 0.00 0.00 0.00 35 1022.0
20260502115526 23 238 6.4 19.3 0.00 0.00 0.00 34 1022.1
20260502115026 23 248 8.0 17.7 0.00 0.00 0.00 36 1022.2
20260502114524 23 257 8.0 17.7 0.00 0.00 0.00 34 1022.2
20260502114022 23 147 1.6 14.5 0.00 0.00 0.00 35 1022.3
20260502113526 22 244 6.4 14.5 0.00 0.00 0.00 35 1022.4
20260502113021 23 227 4.8 12.9 0.00 0.00 0.00 37 1022.5
20260502112519 22 227 4.8 12.9 0.00 0.00 0.00 35 1022.5
20260502112021 22 249 4.8 11.3 0.00 0.00 0.00 36 1022.6
20260502111519 22 237 3.2 12.9 0.00 0.00 0.00 37 1022.7
20260502111018 22 238 8.0 16.1 0.00 0.00 0.00 35 1022.8
20260502110517 22 190 6.4 17.7 0.00 0.00 0.00 39 1022.8
20260502110015 22 241 8.0 17.7 0.00 0.00 0.00 37 1022.9
20260502105515 22 217 3.2 12.9 0.00 0.00 0.00 35 1023.0
20260502105013 22 205 8.0 16.1 0.00 0.00 0.00 37 1023.1
20260502104514 22 221 8.0 14.5 0.00 0.00 0.00 36 1023.2
20260502104012 22 198 6.4 16.1 0.00 0.00 0.00 39 1023.1
20260502103513 21 211 6.4 16.1 0.00 0.00 0.00 38 1023.2
20260502103011 21 205 6.4 12.9 0.00 0.00 0.00 38 1023.3
20260502102510 21 196 4.8 12.9 0.00 0.00 0.00 36 1023.4
20260502102009 21 196 4.8 11.3 0.00 0.00 0.00 40 1023.4
20260502101508 21 248 3.2 11.3 0.00 0.00 0.00 39 1023.5
20260502101007 21 261 3.2 14.5 0.00 0.00 0.00 37 1023.5
20260502100506 21 231 8.0 14.5 0.00 0.00 0.00 37 1023.6
20260502091055 20 240 1.6 11.3 0.00 0.00 0.00 39 1024.2
20260502090555 20 171 3.2 11.3 0.00 0.00 0.00 38 1024.2
20260502071530 18 61 0.0 3.2 0.00 0.00 0.00 46 1025.0
20260502071028 18 61 0.0 3.2 0.00 0.00 0.00 48 1025.0
20260502070526 17 61 0.0 3.2 0.00 0.00 0.00 51 1025.1
20260502070036 17 61 0.0 3.2 0.00 0.00 0.00 50 1025.0
20260502065524 17 61 0.0 3.2 0.00 0.00 0.00 54 1025.1
20260502065022 16 61 0.0 3.2 0.00 0.00 0.00 53 1025.1
20260502064534 16 61 0.0 3.2 0.00 0.00 0.00 56 1025.1
20260502064022 16 61 0.0 3.2 0.00 0.00 0.00 56 1025.1
20260502063518 15 57 1.6 3.2 0.00 0.00 0.00 56 1025.1
20260502063016 15 44 0.0 3.2 0.00 0.00 0.00 57 1025.1
20260502062515 15 44 0.0 3.2 0.00 0.00 0.00 56 1025.2
20260502062017 15 44 0.0 3.2 0.00 0.00 0.00 58 1025.2
20260502061513 14 44 0.0 3.2 0.00 0.00 0.00 59 1025.2
20260502061011 13 44 0.0 3.2 0.00 0.00 0.00 60 1025.2
20260502060509 13 44 0.0 3.2 0.00 0.00 0.00 62 1025.3
20260502060013 13 31 0.0 4.8 0.00 0.00 0.00 63 1025.3
20260502055506 12 32 1.6 6.4 0.00 0.00 0.00 62 1025.3
20260502055006 12 17 3.2 6.4 0.00 0.00 0.00 63 1025.3
20260502054503 12 19 1.6 3.2 0.00 0.00 0.00 65 1025.3
20260502054002 12 19 0.0 4.8 0.00 0.00 0.00 66 1025.4
20260502053502 12 19 1.6 4.8 0.00 0.00 0.00 67 1025.4
20260502053108 11 24 0.0 3.2 0.00 0.00 0.00 67 1025.4
20260502052602 11 24 0.0 3.2 0.00 0.00 0.00 68 1025.4
20260502052058 11 24 0.0 3.2 0.00 0.00 0.00 68 1025.4
20260502051558 11 24 0.0 3.2 0.00 0.00 0.00 71 1025.5
20260502051054 10 24 0.0 3.2 0.00 0.00 0.00 71 1025.5
20260502050555 10 24 0.0 3.2 0.00 0.00 0.00 71 1025.4
20260502050052 10 24 0.0 1.6 0.00 0.00 0.00 71 1025.4
20260502045554 9 24 0.0 1.6 0.00 0.00 0.00 73 1025.4
20260502045048 9 24 0.0 1.6 0.00 0.00 0.00 72 1025.3
20260502044553 8 24 0.0 1.6 0.00 0.00 0.00 72 1025.3
20260502044047 8 24 0.0 0.0 0.00 0.00 0.00 73 1025.3
20260502043546 8 24 0.0 0.0 0.00 0.00 0.00 73 1025.3
20260502043051 8 24 0.0 0.0 0.00 0.00 0.00 74 1025.3
20260502042545 8 24 0.0 0.0 0.00 0.00 0.00 73 1025.3
20260502042045 8 24 0.0 3.2 0.00 0.00 0.00 73 1025.3
20260502041549 8 24 0.0 3.2 0.00 0.00 0.00 73 1025.2
20260502041043 8 24 1.6 4.8 0.00 0.00 0.00 74 1025.2
20260502040645 7 24 3.2 4.8 0.00 0.00 0.00 74 1025.2
20260502040041 7 24 0.0 3.2 0.00 0.00 0.00 75 1025.1
20260502035544 7 24 0.0 3.2 0.00 0.00 0.00 75 1025.2
20260502035041 7 24 0.0 3.2 0.00 0.00 0.00 76 1025.2
20260502034541 7 24 0.0 3.2 0.00 0.00 0.00 76 1025.2
20260502034041 7 24 1.6 3.2 0.00 0.00 0.00 76 1025.3
20260502033541 7 24 0.0 3.2 0.00 0.00 0.00 76 1025.2
20260502033041 7 24 0.0 3.2 0.00 0.00 0.00 77 1025.3
20260502032539 6 24 0.0 3.2 0.00 0.00 0.00 77 1025.2
20260502032040 6 24 0.0 3.2 0.00 0.00 0.00 77 1025.2
20260502031540 6 24 0.0 3.2 0.00 0.00 0.00 78 1025.2
20260502031041 6 24 0.0 3.2 0.00 0.00 0.00 76 1025.2
20260502030537 7 24 0.0 3.2 0.00 0.00 0.00 75 1025.3
20260502030035 7 24 0.0 1.6 0.00 0.00 0.00 73 1025.3
20260502025533 8 24 0.0 0.0 0.00 0.00 0.00 73 1025.3
20260502025033 8 24 0.0 0.0 0.00 0.00 0.00 73 1025.4
20260502024539 8 24 0.0 0.0 0.00 0.00 0.00 72 1025.4
20260502024032 8 24 0.0 0.0 0.00 0.00 0.00 72 1025.4
20260502023532 8 24 0.0 3.2 0.00 0.00 0.00 71 1025.5
20260502023032 8 24 0.0 3.2 0.00 0.00 0.00 71 1025.5
20260502022532 8 24 0.0 0.0 0.00 0.00 0.00 71 1025.4
20260502022033 8 24 0.0 1.6 0.00 0.00 0.00 71 1025.4
20260502021531 8 24 0.0 3.2 0.00 0.00 0.00 72 1025.5
20260502021031 8 24 0.0 3.2 0.00 0.00 0.00 71 1025.5
20260502020531 8 24 0.0 3.2 0.00 0.00 0.00 71 1025.5
20260502020030 8 24 0.0 3.2 0.00 0.00 0.00 70 1025.5
20260502015530 8 24 0.0 3.2 0.00 0.00 0.00 70 1025.5
20260502015031 8 24 0.0 3.2 0.00 0.00 0.00 70 1025.5
20260502014547 8 24 0.0 0.0 0.00 0.00 0.00 71 1025.5
20260502014029 8 24 0.0 1.6 0.00 0.00 0.00 70 1025.5
20260502013529 8 24 0.0 3.2 0.00 0.00 0.00 70 1025.6
20260502013030 8 24 0.0 3.2 0.00 0.00 0.00 71 1025.6
20260502012529 8 24 1.6 3.2 0.00 0.00 0.00 71 1025.6
20260502012029 8 24 0.0 3.2 0.00 0.00 0.00 71 1025.6
20260502011533 8 24 0.0 1.6 0.00 0.00 0.00 70 1025.6
20260502011029 9 24 0.0 0.0 0.00 0.00 0.00 70 1025.6
20260502010529 9 24 0.0 0.0 0.00 0.00 0.00 69 1025.6
20260502010030 9 24 0.0 1.6 0.00 0.00 0.00 69 1025.6
20260502005528 10 24 0.0 1.6 0.00 0.00 0.00 69 1025.6
20260502005028 9 24 0.0 3.2 0.00 0.00 0.00 68 1025.5
20260502004528 9 24 0.0 3.2 0.00 0.00 0.00 69 1025.5
20260502004027 9 24 0.0 3.2 0.00 0.00 0.00 69 1025.5
20260502003527 10 24 0.0 3.2 0.00 0.00 0.00 69 1025.6
20260502003028 9 24 1.6 3.2 0.00 0.00 0.00 69 1025.6
20260502002527 9 20 1.6 4.8 0.00 0.00 0.00 69 1025.6
20260502002027 9 17 1.6 4.8 0.00 0.00 0.00 69 1025.7
20260502001527 8 17 1.6 3.2 0.00 0.00 0.00 69 1025.7
20260502001028 8 17 1.6 3.2 0.00 0.00 0.00 70 1025.7
20260502000526 8 17 1.6 3.2 0.00 0.00 0.00 71 1025.8
20260502000042 8 17 0.0 3.2 0.00 0.00 0.00 71 1025.8
20260501235526 8 17 0.0 3.2 0.00 0.00 0.00 71 1025.8
20260501235024 8 17 1.6 3.2 0.00 0.00 0.00 71 1025.8
20260501234524 8 11 0.0 3.2 0.00 0.00 0.00 71 1025.9
20260501234024 8 11 0.0 3.2 0.00 0.00 0.00 69 1025.9
20260501233524 9 10 0.0 3.2 0.00 0.00 0.00 69 1025.9
20260501233024 9 10 0.0 3.2 0.00 0.00 0.00 68 1025.8
20260501232523 9 10 0.0 3.2 0.00 0.00 0.00 67 1025.8